| time (UTC) | temp F | wind direction | speed MPH | gust MPH | rain 1hr in | rain 24hr in | rain mn in | humidity % | barometer mb |
| 20260905084542 | 80 | 0 | 0.0 | 0.0 | 0.00 | 0.00 | 0.00 | 56 | 1013.1 |
| 20260905083042 | 81 | 0 | 0.0 | 1.0 | 0.00 | 0.00 | 0.00 | 56 | 1012.9 |
| 20260905081542 | 81 | 0 | 0.0 | 0.0 | 0.00 | 0.00 | 0.00 | 54 | 1012.9 |
| 20260905080053 | 82 | 0 | 0.0 | 1.0 | 0.00 | 0.00 | 0.00 | 54 | 1012.8 |
| 20260905074538 | 82 | 75 | 0.0 | 3.0 | 0.00 | 0.00 | 0.00 | 54 | 1012.8 |
| 20260905073043 | 82 | 0 | 0.0 | 0.0 | 0.00 | 0.00 | 0.00 | 53 | 1013.0 |
| 20260905071542 | 83 | 0 | 0.0 | 1.0 | 0.00 | 0.00 | 0.00 | 51 | 1013.1 |
| 20260905070039 | 84 | 0 | 0.0 | 1.0 | 0.00 | 0.00 | 0.00 | 50 | 1013.1 |
| 20260905064546 | 84 | 88 | 0.0 | 2.0 | 0.00 | 0.00 | 0.00 | 50 | 1013.2 |
| 20260905063053 | 85 | 0 | 0.0 | 4.0 | 0.00 | 0.00 | 0.00 | 49 | 1013.2 |
| 20260905061549 | 85 | 107 | 0.0 | 3.0 | 0.00 | 0.00 | 0.00 | 48 | 1013.2 |
| 20260905060041 | 85 | 0 | 0.0 | 6.0 | 0.00 | 0.00 | 0.00 | 47 | 1013.1 |
| 20260905054540 | 86 | 41 | 1.0 | 6.0 | 0.00 | 0.00 | 0.00 | 46 | 1013.1 |
| 20260905053045 | 86 | 94 | 1.0 | 5.0 | 0.00 | 0.00 | 0.00 | 45 | 1012.8 |
| 20260905051545 | 86 | 324 | 0.0 | 5.0 | 0.00 | 0.00 | 0.00 | 45 | 1012.8 |
| 20260905050046 | 87 | 70 | 1.0 | 3.0 | 0.00 | 0.00 | 0.00 | 44 | 1012.8 |
| 20260905044544 | 87 | 39 | 0.0 | 4.0 | 0.00 | 0.00 | 0.00 | 44 | 1012.8 |
| 20260905043041 | 88 | 24 | 0.0 | 5.0 | 0.00 | 0.00 | 0.00 | 43 | 1012.7 |
| 20260905041538 | 88 | 11 | 1.0 | 7.0 | 0.00 | 0.00 | 0.00 | 42 | 1012.7 |
| 20260905040049 | 89 | 34 | 2.0 | 6.0 | 0.00 | 0.00 | 0.00 | 41 | 1012.8 |
| 20260905034545 | 89 | 46 | 1.0 | 5.0 | 0.00 | 0.00 | 0.00 | 40 | 1012.8 |
| 20260905033041 | 89 | 41 | 0.0 | 3.0 | 0.00 | 0.00 | 0.00 | 38 | 1012.8 |
| 20260905031538 | 89 | 245 | 1.0 | 4.0 | 0.00 | 0.00 | 0.00 | 37 | 1012.6 |
| 20260905030057 | 89 | 18 | 0.0 | 2.0 | 0.00 | 0.00 | 0.00 | 37 | 1012.7 |
| 20260905024541 | 88 | 115 | 0.0 | 2.0 | 0.00 | 0.00 | 0.00 | 39 | 1012.4 |
| 20260905023047 | 89 | 0 | 0.0 | 0.0 | 0.00 | 0.00 | 0.00 | 38 | 1012.3 |
| 20260905021541 | 90 | 0 | 0.0 | 0.0 | 0.00 | 0.00 | 0.00 | 37 | 1011.9 |
| 20260905020057 | 91 | 0 | 0.0 | 1.0 | 0.00 | 0.00 | 0.00 | 36 | 1011.7 |
| 20260905014544 | 92 | 0 | 1.0 | 5.0 | 0.00 | 0.00 | 0.00 | 35 | 1011.4 |
| 20260905013042 | 92 | 235 | 0.0 | 3.0 | 0.00 | 0.00 | 0.00 | 35 | 1011.2 |
| 20260905011541 | 92 | 0 | 1.0 | 7.0 | 0.00 | 0.00 | 0.00 | 35 | 1011.2 |
| 20260905010048 | 93 | 233 | 0.0 | 2.0 | 0.00 | 0.00 | 0.00 | 35 | 1010.9 |
| 20260905004603 | 94 | 244 | 1.0 | 4.0 | 0.00 | 0.00 | 0.00 | 34 | 1010.6 |
| 20260905003038 | 95 | 271 | 1.0 | 4.0 | 0.00 | 0.00 | 0.00 | 31 | 1010.5 |
| 20260905001544 | 96 | 28 | 0.0 | 9.0 | 0.00 | 0.00 | 0.00 | 31 | 1010.4 |
| 20260905000043 | 96 | 37 | 0.0 | 4.0 | 0.00 | 0.00 | 0.00 | 30 | 1010.2 |
| 20260904234542 | 96 | 23 | 1.0 | 5.0 | 0.00 | 0.00 | 0.00 | 28 | 1010.3 |
| 20260904233051 | 97 | 37 | 2.0 | 6.0 | 0.00 | 0.00 | 0.00 | 27 | 1010.3 |
| 20260904231544 | 97 | 30 | 1.0 | 5.0 | 0.00 | 0.00 | 0.00 | 27 | 1010.4 |
| 20260904230043 | 97 | 221 | 0.0 | 5.0 | 0.00 | 0.00 | 0.00 | 27 | 1010.3 |
| 20260904224549 | 97 | 287 | 2.0 | 6.0 | 0.00 | 0.00 | 0.00 | 27 | 1010.6 |
| 20260904223040 | 97 | 46 | 0.0 | 5.0 | 0.00 | 0.00 | 0.00 | 28 | 1010.5 |
| 20260904221540 | 98 | 227 | 2.0 | 5.0 | 0.00 | 0.00 | 0.00 | 27 | 1010.7 |
| 20260904220044 | 99 | 49 | 0.0 | 6.0 | 0.00 | 0.00 | 0.00 | 27 | 1010.6 |
| 20260904214541 | 99 | 246 | 0.0 | 3.0 | 0.00 | 0.00 | 0.00 | 27 | 1010.8 |
| 20260904213041 | 99 | 299 | 2.0 | 6.0 | 0.00 | 0.00 | 0.00 | 26 | 1011.0 |
| 20260904211545 | 100 | 59 | 1.0 | 6.0 | 0.00 | 0.00 | 0.00 | 26 | 1011.1 |
| 20260904210049 | 100 | 293 | 3.0 | 7.0 | 0.00 | 0.00 | 0.00 | 26 | 1011.4 |
| 20260904204545 | 100 | 26 | 1.0 | 6.0 | 0.00 | 0.00 | 0.00 | 26 | 1011.5 |
| 20260904203043 | 99 | 14 | 2.0 | 11.0 | 0.00 | 0.00 | 0.00 | 27 | 1011.7 |
| 20260904201539 | 99 | 27 | 2.0 | 10.0 | 0.00 | 0.00 | 0.00 | 28 | 1012.0 |
| 20260904200041 | 98 | 34 | 2.0 | 7.0 | 0.00 | 0.00 | 0.00 | 29 | 1012.3 |
| 20260904194543 | 98 | 60 | 2.0 | 12.0 | 0.00 | 0.00 | 0.00 | 30 | 1012.4 |
| 20260904193122 | 98 | 50 | 2.0 | 6.0 | 0.00 | 0.00 | 0.00 | 31 | 1012.5 |
| 20260904191538 | 97 | 11 | 1.0 | 7.0 | 0.00 | 0.00 | 0.00 | 32 | 1012.7 |
| 20260904190040 | 97 | 20 | 2.0 | 10.0 | 0.00 | 0.00 | 0.00 | 31 | 1012.9 |
| 20260904184542 | 97 | 88 | 1.0 | 3.0 | 0.00 | 0.00 | 0.00 | 32 | 1013.1 |
| 20260904183047 | 96 | 284 | 3.0 | 11.0 | 0.00 | 0.00 | 0.00 | 33 | 1013.4 |
| 20260904181546 | 95 | 360 | 2.0 | 10.0 | 0.00 | 0.00 | 0.00 | 33 | 1013.6 |
| 20260904180040 | 95 | 36 | 2.0 | 8.0 | 0.00 | 0.00 | 0.00 | 33 | 1013.8 |
| 20260904174552 | 94 | 42 | 2.0 | 9.0 | 0.00 | 0.00 | 0.00 | 34 | 1013.8 |
| 20260904173043 | 93 | 44 | 2.0 | 6.0 | 0.00 | 0.00 | 0.00 | 37 | 1014.0 |
| 20260904171555 | 93 | 297 | 2.0 | 8.0 | 0.00 | 0.00 | 0.00 | 38 | 1014.1 |
| 20260904170041 | 92 | 131 | 1.0 | 3.0 | 0.00 | 0.00 | 0.00 | 39 | 1014.3 |
| 20260904164548 | 91 | 46 | 1.0 | 5.0 | 0.00 | 0.00 | 0.00 | 42 | 1014.5 |
| 20260904163040 | 90 | 0 | 1.0 | 4.0 | 0.00 | 0.00 | 0.00 | 45 | 1014.5 |
| 20260904161538 | 89 | 115 | 1.0 | 8.0 | 0.00 | 0.00 | 0.00 | 47 | 1014.5 |
| 20260904160042 | 87 | 176 | 1.0 | 5.0 | 0.00 | 0.00 | 0.00 | 51 | 1014.5 |
| 20260904154541 | 86 | 300 | 1.0 | 6.0 | 0.00 | 0.00 | 0.00 | 53 | 1014.4 |
| 20260904153040 | 85 | 0 | 1.0 | 6.0 | 0.00 | 0.00 | 0.00 | 56 | 1014.4 |
| 20260904151543 | 84 | 148 | 0.0 | 5.0 | 0.00 | 0.00 | 0.00 | 59 | 1014.4 |
| 20260904150041 | 83 | 18 | 1.0 | 7.0 | 0.00 | 0.00 | 0.00 | 61 | 1014.5 |
| 20260904144541 | 82 | 70 | 1.0 | 7.0 | 0.00 | 0.00 | 0.00 | 63 | 1014.5 |
| 20260904143045 | 81 | 36 | 1.0 | 6.0 | 0.00 | 0.00 | 0.00 | 64 | 1014.4 |
| 20260904141542 | 81 | 225 | 1.0 | 6.0 | 0.00 | 0.00 | 0.00 | 65 | 1014.4 |
| 20260904140038 | 80 | 0 | 2.0 | 5.0 | 0.00 | 0.00 | 0.00 | 66 | 1014.3 |
| 20260904134546 | 80 | 0 | 0.0 | 1.0 | 0.00 | 0.00 | 0.00 | 66 | 1014.2 |
| 20260904133041 | 79 | 0 | 1.0 | 3.0 | 0.00 | 0.00 | 0.00 | 67 | 1014.1 |
| 20260904131554 | 79 | 0 | 0.0 | 1.0 | 0.00 | 0.00 | 0.00 | 67 | 1014.0 |
| 20260904130042 | 79 | 0 | 0.0 | 4.0 | 0.00 | 0.00 | 0.00 | 67 | 1013.7 |
| 20260904124538 | 78 | 46 | 0.0 | 4.0 | 0.00 | 0.00 | 0.00 | 68 | 1013.7 |
| 20260904123041 | 78 | 64 | 0.0 | 5.0 | 0.00 | 0.00 | 0.00 | 68 | 1013.6 |
| 20260904121540 | 78 | 0 | 0.0 | 1.0 | 0.00 | 0.00 | 0.00 | 67 | 1013.6 |
| 20260904120048 | 78 | 0 | 0.0 | 3.0 | 0.00 | 0.00 | 0.00 | 67 | 1013.4 |
| 20260904114537 | 78 | 0 | 0.0 | 0.0 | 0.00 | 0.00 | 0.00 | 67 | 1013.3 |
| 20260904113041 | 79 | 0 | 0.0 | 0.0 | 0.00 | 0.00 | 0.00 | 66 | 1013.3 |
| 20260904111544 | 79 | 0 | 0.0 | 0.0 | 0.00 | 0.00 | 0.00 | 66 | 1013.2 |
| 20260904110040 | 79 | 0 | 0.0 | 4.0 | 0.00 | 0.00 | 0.00 | 66 | 1013.1 |
| 20260904104547 | 79 | 0 | 0.0 | 2.0 | 0.00 | 0.00 | 0.00 | 66 | 1013.0 |
| 20260904103050 | 79 | 0 | 0.0 | 7.0 | 0.00 | 0.00 | 0.00 | 66 | 1013.0 |
| 20260904101541 | 79 | 0 | 0.0 | 3.0 | 0.00 | 0.00 | 0.00 | 66 | 1012.8 |
| 20260904100042 | 79 | 0 | 0.0 | 5.0 | 0.00 | 0.00 | 0.00 | 66 | 1012.6 |
| 20260904094541 | 79 | 86 | 0.0 | 3.0 | 0.00 | 0.00 | 0.00 | 65 | 1012.6 |
| 20260904093045 | 79 | 43 | 0.0 | 4.0 | 0.00 | 0.00 | 0.00 | 65 | 1012.7 |
| 20260904091544 | 79 | 0 | 0.0 | 4.0 | 0.00 | 0.00 | 0.00 | 65 | 1012.7 |
| 20260904090042 | 79 | 146 | 0.0 | 2.0 | 0.00 | 0.00 | 0.00 | 64 | 1012.7 |